Zurück zum Katalog

NOAA 16 DEB

AktivSSO
NORAD 41054·DEBRIS·🇺🇸 United States

Gestartet Sep 21, 2000 von Vandenberg Space Force Base

Loading…

Nächste Überflüge (nächste 24 Stunden)

TLE

AktuellSource: Space-Track

Epoche: Sep 14, 2026, 09:55 UTC

1 41054U 00055M   26257.41387134  .00000634  00000-0  23999-3 0  9995
2 41054  98.9905 147.8835 0063185 232.4667 127.0764 14.33740308563256

Verfolge NOAA 16 DEB in Echtzeit mit AllMySat

Download on the App Store